Simultaneous Nadir Overpasses (SNOs) Predictions

Prediction of SNOs between FY3D and METOP-C Satellite Orbit:

Table of predicted SNOs for the next 14.0 days since TLE Epoch: 7/20/2019
Index Date (FY3D) Time (FY3D) Lat,Lon (FY3D) SZA (FY3D ) Date (METOP-C) Time (METOP-C) Lat,Lon (METOP-C) SZA (METOP-C ) Distance(km) Time Diff (sec)
1 07/27/2019 00:15:50 73.70, 166.91 54.62 07/27/2019 00:16:56 73.63, 169.70 54.39 87.36 66
2 07/27/2019 01:06:31 -73.55, -25.41 125.54 07/27/2019 01:07:40 -73.49, -23.30 125.73 66.93 69
3 07/27/2019 01:57:13 73.39, 142.25 54.30 07/27/2019 01:58:23 73.36, 143.74 54.17 47.51 70
4 07/27/2019 02:47:55 -73.29, -50.20 125.81 07/27/2019 02:49:07 -73.22, -49.25 125.95 31.68 72
5 07/27/2019 03:38:37 73.13, 117.45 54.03 07/27/2019 03:39:50 73.09, 117.80 53.95 12.40 73
6 07/27/2019 04:29:19 -73.03, -75.01 126.08 07/27/2019 04:30:32 -73.05, -74.96 126.09 2.22 73
7 07/27/2019 05:20:04 73.03, 92.32 53.92 07/27/2019 05:21:13 73.02, 92.31 53.90 1.13 69
8 07/27/2019 06:10:48 -73.02,-100.36 126.07 07/27/2019 06:11:54 -73.03,-100.34 126.09 0.67 66
9 07/27/2019 07:01:33 73.02, 66.96 53.93 07/27/2019 07:02:35 73.00, 66.92 53.90 2.81 62
10 07/27/2019 07:52:17 -73.02,-125.72 126.07 07/27/2019 07:53:16 -73.00,-125.73 126.09 1.33 59
11 07/27/2019 08:43:02 73.01, 41.61 53.94 07/27/2019 08:43:56 73.03, 41.65 53.94 2.14 54
12 07/27/2019 09:33:46 -73.01,-151.07 126.06 07/27/2019 09:34:38 -72.98,-151.11 126.09 2.98 52
13 07/27/2019 10:24:31 73.00, 16.25 53.95 07/27/2019 10:25:18 73.00, 16.26 53.94 0.45 47
14 07/27/2019 11:15:15 -73.00,-176.43 126.05 07/27/2019 11:15:59 -73.01,-176.39 126.05 1.98 44
15 07/27/2019 12:06:00 72.99, -9.10 53.95 07/27/2019 12:06:40 72.98, -9.12 53.93 1.30 40
16 07/27/2019 12:56:44 -72.99, 158.22 126.05 07/27/2019 12:57:21 -72.99, 158.23 126.05 0.40 37
17 07/27/2019 13:47:28 72.99, -34.46 53.96 07/27/2019 13:48:01 72.96, -34.50 53.93 3.01 33
18 07/27/2019 14:38:12 -72.99, 132.86 126.04 07/27/2019 14:38:42 -72.97, 132.85 126.06 1.48 30
19 07/27/2019 15:28:57 72.98, -59.81 53.97 07/27/2019 15:29:22 72.99, -59.78 53.97 1.92 25
20 07/27/2019 16:19:41 -72.98, 107.51 126.03 07/27/2019 16:20:04 -72.95, 107.46 126.06 3.17 23
21 07/27/2019 17:10:26 72.97, -85.17 53.97 07/27/2019 17:10:44 72.97, -85.16 53.97 0.21 18
22 07/27/2019 18:01:10 -72.97, 82.15 126.02 07/27/2019 18:01:25 -72.98, 82.19 126.02 1.76 15
23 07/27/2019 18:51:55 72.96,-110.52 53.98 07/27/2019 18:52:06 72.95,-110.55 53.97 1.51 11
24 07/27/2019 19:42:39 -72.96, 56.80 126.02 07/27/2019 19:42:47 -72.96, 56.80 126.02 0.16 8
25 07/27/2019 20:33:24 72.96,-135.88 53.99 07/27/2019 20:33:28 72.93,-135.93 53.97 3.21 4
26 07/27/2019 21:24:08 -72.95, 31.44 126.01 07/27/2019 21:24:09 -72.94, 31.42 126.02 1.66 1
27 07/27/2019 22:14:53 72.95,-161.23 54.00 07/27/2019 22:14:49 72.96,-161.21 54.01 1.72 4
28 07/27/2019 23:05:37 -72.95, 6.09 126.00 07/27/2019 23:05:30 -72.97, 6.14 125.98 3.25 7
29 07/27/2019 23:56:22 72.94, 173.41 54.00 07/27/2019 23:56:11 72.94, 173.41 54.01 0.18 11
30 07/28/2019 00:47:06 -72.94, -19.27 125.99 07/28/2019 00:46:52 -72.95, -19.24 125.98 1.55 14
31 07/28/2019 01:37:51 72.93, 148.06 54.01 07/28/2019 01:37:33 72.92, 148.03 54.01 1.72 18
32 07/28/2019 02:28:35 -72.93, -44.62 125.99 07/28/2019 02:28:14 -72.93, -44.63 125.98 0.15 21
33 07/28/2019 03:19:20 72.92, 122.70 54.02 07/28/2019 03:18:54 72.95, 122.75 54.05 3.23 26
34 07/28/2019 04:10:04 -72.92, -69.98 125.98 07/28/2019 04:09:36 -72.91, -70.01 125.98 1.85 28
35 07/28/2019 05:00:49 72.92, 97.35 54.03 07/28/2019 05:00:16 72.93, 97.37 54.05 1.54 33
36 07/28/2019 05:51:33 -72.92, -95.33 125.97 07/28/2019 05:50:57 -72.94, -95.29 125.94 3.06 36
37 07/28/2019 06:42:18 72.91, 71.99 54.03 07/28/2019 06:41:38 72.91, 71.98 54.04 0.40 40
38 07/28/2019 07:33:02 -72.91,-120.69 125.96 07/28/2019 07:32:19 -72.92,-120.67 125.94 1.37 43
39 07/28/2019 08:23:47 72.90, 46.64 54.04 07/28/2019 08:23:00 72.89, 46.60 54.04 1.94 47
40 07/28/2019 09:14:31 -72.90,-146.04 125.96 07/28/2019 09:13:41 -72.90,-146.05 125.95 0.36 50
41 07/28/2019 10:05:16 72.89, 21.28 54.05 07/28/2019 10:04:21 72.92, 21.32 54.08 3.06 55
42 07/28/2019 10:56:00 -72.89,-171.40 125.95 07/28/2019 10:55:03 -72.88,-171.43 125.95 2.04 57
43 07/28/2019 11:46:45 72.89, -4.07 54.06 07/28/2019 11:45:43 72.90, -4.06 54.08 1.40 62
44 07/28/2019 12:37:29 -72.88, 163.25 125.94 07/28/2019 12:36:24 -72.91, 163.29 125.90 2.89 65
45 07/28/2019 13:28:14 72.88, -29.43 54.07 07/28/2019 13:27:05 72.88, -29.44 54.08 0.63 69
46 07/28/2019 14:18:58 -72.88, 137.89 125.93 07/28/2019 14:17:46 -72.89, 137.91 125.91 1.21 72
47 07/28/2019 15:09:42 72.82, -54.67 54.02 07/28/2019 15:08:28 72.81, -54.93 54.04 8.67 74
48 07/28/2019 16:00:24 -72.72, 112.85 126.09 07/28/2019 15:59:11 -72.71, 112.21 126.04 21.38 73
49 07/28/2019 16:51:06 72.56, -79.51 53.75 07/28/2019 16:49:55 72.53, -80.84 53.81 44.50 71
50 07/28/2019 17:41:48 -72.46, 88.01 126.36 07/28/2019 17:40:38 -72.44, 86.31 126.26 57.12 70
51 07/28/2019 18:32:29 72.24,-104.25 53.42 07/28/2019 18:31:22 72.25,-106.72 53.59 83.77 67
52 07/28/2019 19:23:11 -72.14, 63.26 126.68 07/28/2019 19:22:05 -72.16, 60.43 126.48 96.34 66




NCC Satellite Simultaneous Nadir Overpasses (SNOs) Prediction Service
